This demonstration page uses our WeatherBlox Daily Observations layout. Learn more.

39.08367, -84.50855

Hourly Observations for January 26, 2019

Temp ( °F °C ) Dew Point ( °F °C ) Humidity (%) Winds ( mph kmh ) Pressure ( in mb ) Visibility ( mi km ) Precip ( " mm )
12:53 am 00:53 Cloudy 25 -3.9 10 -12.2 53 53 SW 8 13 30.21 1023 10 16.09344 0 0
1:53 am 01:53 Cloudy 25 -3.9 11 -11.7 55 55 SSW 8 13 30.21 1023 10 16.09344 0 0
2:53 am 02:53 Cloudy 24 -4.4 12 -11.1 60 60 S 6 9 30.21 1023 10 16.09344 0 0
3:53 am 03:53 Cloudy 25 -3.9 13 -10.6 60 60 SSW 9 15 30.21 1023 10 16.09344 0 0
4:53 am 04:53 Cloudy 25 -3.9 15 -9.4 66 66 S 6 9 30.18 1022 10 16.09344 0 0
5:53 am 05:53 Cloudy 25 -3.9 16 -8.9 69 69 SW 10 17 30.18 1022 10 16.09344 0 0
6:53 am 06:53 Cloudy 26 -3.3 16 -8.9 66 66 SW 8 13 30.21 1023 10 16.09344 0 0
7:53 am 07:53 Cloudy 26 -3.3 17 -8.3 69 69 SSW 7 11 30.21 1023 10 16.09344 0 0
8:53 am 08:53 Mostly Cloudy 27 -2.8 17 -8.3 66 66 SW 9 15 30.21 1023 10 16.09344 0 0
9:53 am 09:53 Cloudy 29 -1.7 18 -7.8 63 63 WSW 7 11 30.21 1023 10 16.09344 0 0
10:53 am 10:53 Cloudy 30 -1.1 20 -6.7 66 66 SW 10 17 30.21 1023 10 16.09344 0 0
11:16 am 11:16 Cloudy 30 -1.1 20 -6.7 66 66 WSW 14 22 30.24 1024 10 16.09344 0 0
11:53 am 11:53 Cloudy 32 0 22 -5.6 66 66 SSW 12 19 30.21 1023 10 16.09344 0 0
12:53 pm 12:53 Cloudy 32 0 22 -5.6 66 66 SW 12 19 30.18 1022 10 16.09344 0 0
1:08 pm 13:08 Cloudy 32 0 22 -5.6 66 66 WSW 14 22 30.21 1023 10 16.09344 0 0
1:15 pm 13:15 Cloudy 32 0 21 -6.1 64 64 SW 12 19 30.21 1023 10 16.09344 0 0
1:53 pm 13:53 Cloudy 34 1.1 23 -5 64 64 SSW 10 17 30.15 1021 10 16.09344 0 0
2:53 pm 14:53 Cloudy 35 1.7 23 -5 61 61 SSW 17 28 30.12 1020 10 16.09344 0 0
3:53 pm 15:53 Mostly Cloudy 33 0.6 21 -6.1 61 61 SSW 17 28 30.12 1020 10 16.09344 0 0
4:53 pm 16:53 Cloudy 34 1.1 21 -6.1 59 59 SSW 12 19 30.09 1019 10 16.09344 0 0
5:53 pm 17:53 Cloudy 33 0.6 22 -5.6 64 64 S 17 28 30.09 1019 10 16.09344 0 0
6:53 pm 18:53 Cloudy 33 0.6 22 -5.6 64 64 S 10 17 30.06 1018 10 16.09344 0 0
7:53 pm 19:53 Cloudy with Light Snow 33 0.6 25 -3.9 72 72 SSW 13 20 30.06 1018 7 11.265408 0.001 0.001
8:53 pm 20:53 Cloudy 33 0.6 27 -2.8 78 78 S 9 15 30.03 1017 10 16.09344 0.001 0.001
9:53 pm 21:53 Cloudy 34 1.1 26 -3.3 73 73 S 9 15 30 1016 10 16.09344 0 0
10:53 pm 22:53 Cloudy 36 2.2 26 -3.3 67 67 SSW 16 26 29.97 1015 10 16.09344 0 0
11:53 pm 23:53 Cloudy 38 3.3 27 -2.8 65 65 SSW 15 24 29.94 1014 10 16.09344 0 0

Powered by AerisWeather